カタログに戻る

TITAN 3C TRANSTAGE R/B

運用中MEO
NORAD 6976·ROCKET BODY·🇺🇸 United States

打ち上げ Dec 13, 1973 から Cape Canaveral Space Force Station

Loading…

次のパス (今後24時間)

TLE

最新Source: Space-Track

元期: Sep 14, 2026, 07:00 UTC

1 06976U 73100D   26257.29189105 -.00000207  00000-0  00000-0 0  9996
2 06976   6.2639 283.1029 0268400 136.8725  45.8641  0.94996994112587

AllMySatでTITAN 3C TRANSTAGE R/Bをリアルタイム追跡

Download on the App Store